EHI
0 0 0 0 0 0 0 0 0 0 0 0 0 0 0 0 0 2 7 13 26 52 69 72 74 73 68 70 73 73 72 69 64 59 54 46 36 29 24 18 12 9 6 5 5 10 15 18 19
0 0 0 0 0 0 0 0 0 0 0 0 0 0 0 0 1 3 9 15 30 55 71 75 80 81 79 77 78 80 79 74 69 65 59 50 41 33 26 19 13 10 8 6 6 9 12 14 14
0 0 0 0 0 0 0 0 0 0 0 0 0 0 0 1 1 6 15 23 35 54 70 80 87 90 90 87 86 87 85 79 74 68 62 55 48 39 29 19 13 11 9 7 7 8 9 10 10
0 0 0 0 0 0 0 0 0 0 0 0 0 0 1 3 5 13 25 30 37 50 67 82 91 94 95 92 88 87 86 82 76 69 62 56 50 41 29 18 11 9 8 7 6 6 7 7 8
0 0 0 0 0 0 0 0 0 0 0 0 0 0 2 5 11 21 28 30 37 50 66 82 92 94 94 90 87 86 86 84 79 71 62 56 49 40 28 17 9 7 7 6 5 5 5 6 7
0 0 0 0 0 0 0 0 0 0 0 0 0 0 2 7 16 27 30 31 41 55 68 81 89 91 88 85 84 85 86 85 81 72 62 52 44 37 27 16 9 7 7 5 5 5 4 5 5
0 0 0 0 0 0 0 0 0 0 0 0 0 0 3 12 25 35 37 38 46 57 68 78 82 82 79 77 78 81 83 85 81 71 58 44 35 30 23 15 10 9 8 6 5 4 3 3 2
0 0 0 0 0 0 0 0 0 0 0 0 0 1 6 18 33 45 49 50 53 58 66 75 77 72 66 63 65 69 73 78 75 63 49 34 23 19 15 12 11 11 8 6 5 4 2 1 0
0 0 0 0 0 0 0 0 0 0 0 0 0 1 7 20 37 52 59 62 62 63 67 73 74 66 51 44 47 49 52 55 50 42 34 22 12 10 9 13 16 12 7 5 4 4 2 0 0
0 0 0 0 0 0 0 0 0 0 0 0 0 1 5 16 34 51 61 65 67 69 69 70 70 62 48 39 39 36 33 30 24 22 22 15 10 7 8 15 18 11 5 4 3 3 1 0 0
0 0 0 0 0 0 0 0 0 0 0 0 0 0 3 12 26 41 50 57 63 68 69 69 69 64 57 51 46 40 34 26 18 20 23 20 16 11 9 12 13 8 4 3 3 2 0 0 0
0 0 0 0 0 0 0 0 0 0 0 0 0 1 3 10 18 26 33 40 51 60 63 66 70 72 71 67 60 53 47 38 32 34 34 27 21 14 11 11 9 5 3 3 3 1 0 0 0
0 0 0 0 0 0 0 0 0 0 0 0 0 1 4 9 13 17 21 29 39 47 53 60 70 77 79 78 73 63 56 50 47 45 37 28 21 15 13 15 13 7 4 4 3 2 1 1 1
0 0 0 0 0 0 0 0 0 0 0 0 0 2 6 12 15 17 20 24 29 35 44 54 66 75 79 80 76 65 58 56 51 44 36 26 20 16 15 17 17 12 9 8 6 3 2 2 2
0 0 0 0 0 0 0 0 0 0 0 1 2 5 10 16 20 21 23 24 24 28 38 49 57 65 72 73 70 61 56 54 50 44 38 29 21 18 20 19 17 15 14 14 10 5 3 2 1
0 0 0 0 0 0 0 0 0 0 1 1 3 6 11 18 23 26 27 27 25 29 39 45 46 51 59 65 64 58 54 54 55 51 45 36 26 22 23 23 20 18 19 17 12 8 5 2 2
0 0 0 0 0 0 0 0 0 1 2 2 3 6 12 19 24 27 29 30 29 33 42 43 38 38 46 55 61 60 57 58 60 59 53 45 35 28 26 26 22 20 22 20 14 13 10 6 4
0 0 0 0 0 0 0 0 0 2 5 7 8 9 12 17 20 21 24 27 28 33 41 40 35 34 38 46 55 57 55 55 59 59 54 47 37 31 30 28 24 23 26 24 18 15 14 9 7
0 0 0 0 0 0 0 0 1 5 9 12 13 13 13 13 12 12 17 22 23 28 36 36 34 37 41 45 50 52 48 47 51 51 47 39 33 32 34 34 30 30 31 27 20 17 16 11 9
0 0 0 0 0 0 0 1 3 6 10 13 13 12 11 9 7 8 11 15 17 21 29 33 34 39 45 49 51 49 44 41 42 42 38 33 29 32 36 37 36 35 35 29 22 20 18 13 11
0 0 0 0 0 0 0 1 2 5 8 10 9 7 6 5 4 5 7 9 11 14 20 26 32 38 44 49 50 46 39 35 34 33 30 25 24 26 28 30 33 36 35 29 23 20 18 14 11
0 0 0 0 0 0 0 0 1 3 6 7 6 4 3 2 2 3 5 7 9 10 12 18 25 33 40 45 44 39 32 28 24 21 17 14 13 13 14 16 21 26 26 21 16 15 14 12 10
0 0 0 0 0 0 0 0 1 2 4 4 4 4 3 3 3 3 4 6 9 10 10 13 19 26 33 37 36 31 25 19 14 11 8 6 5 4 4 6 8 11 11 9 8 9 9 8 7
0 0 0 0 0 0 0 0 0 1 2 2 2 3 4 3 3 3 3 5 8 10 11 12 16 22 25 27 26 21 16 11 7 6 5 3 2 2 2 2 3 4 3 3 3 4 4 3 2
0 0 0 0 0 0 0 1 2 3 4 3 2 2 3 3 3 3 3 5 7 9 11 13 17 20 20 19 17 13 10 7 6 5 3 1 1 2 1 1 2 2 1 1 1 1 1 0 0
0 0 0 0 0 0 0 2 6 7 6 4 3 2 3 4 5 5 5 6 6 7 9 13 16 17 16 14 11 8 6 6 6 5 2 0 0 1 1 0 1 1 0 0 0 0 0 0 0
0 0 0 0 0 0 0 2 7 7 4 2 2 3 5 6 6 5 5 6 6 6 7 10 12 11 9 8 7 5 4 4 4 3 1 0 0 0 0 0 0 0 0 0 0 0 0 0 0
0 0 0 0 0 0 0 1 3 4 3 1 1 3 5 5 5 4 4 5 6 6 6 6 5 5 4 4 4 4 3 3 2 1 0 0 0 0 0 0 0 0 0 0 0 0 0 0 0
0 0 0 0 0 0 0 0 2 6 6 2 1 2 3 4 4 3 3 4 5 5 3 2 1 1 1 2 2 2 2 1 1 0 0 0 0 0 0 0 0 0 0 0 0 0 0 0 0
0 0 0 0 0 0 0 0 2 8 10 4 1 2 2 3 3 3 3 4 4 4 2 0 0 0 1 1 1 1 1 0 0 0 0 0 0 0 0 0 0 0 0 0 0 0 0 0 0
Wind_Speed
8 7 7 6 9 10 13 6 4 3 1 2 3 4 5 4 4 4 6 9 13 18 19 19 14 14 15 16 16 16 17 17 16 15 15 14 13 13 12 12 11 10 10 10 10 11 11 11 12
5 6 7 8 10 12 10 7 6 2 4 3 3 4 5 2 2 4 6 11 16 19 19 19 17 15 16 16 17 17 17 17 16 15 15 14 13 12 12 12 11 10 10 10 10 11 11 11 11
6 8 8 8 13 13 9 3 3 1 2 4 4 4 4 1 3 3 7 14 17 18 19 19 19 16 17 17 17 17 17 17 16 15 15 14 13 12 11 11 11 11 10 10 10 10 10 10 10
7 8 7 10 15 12 10 6 3 6 4 4 5 4 3 1 1 5 12 16 18 19 19 21 19 18 17 17 17 17 17 17 16 16 15 14 13 12 11 11 11 11 10 10 10 10 9 9 9
8 8 12 14 16 12 9 9 8 10 7 5 7 7 4 4 4 8 13 16 18 19 19 22 19 18 18 18 17 17 17 16 16 15 15 14 12 12 11 11 11 11 10 10 10 9 8 8 7
7 7 11 14 14 12 10 10 10 12 10 7 7 9 4 5 6 9 13 15 17 18 19 20 20 20 19 18 17 16 16 15 15 14 14 13 12 11 11 11 11 10 10 10 9 8 8 7 6
10 9 13 13 11 10 9 9 11 12 11 9 6 8 4 6 7 9 12 14 16 18 19 20 20 20 19 18 17 16 15 15 14 14 14 13 13 12 12 11 10 10 10 9 9 8 7 6 5
8 8 12 12 11 10 5 7 9 11 11 6 6 8 4 7 9 10 12 13 15 17 18 19 19 19 18 17 18 17 16 15 14 14 14 14 13 12 11 11 10 10 9 9 8 8 7 6 4
8 9 10 9 8 6 3 7 8 7 10 9 9 8 3 8 12 12 12 13 15 16 16 18 19 18 18 17 17 17 16 14 14 14 14 13 12 12 11 10 11 10 9 9 8 7 6 6 6
8 10 9 4 6 7 6 8 7 8 11 11 10 8 3 9 13 15 15 17 18 19 19 18 19 18 18 14 14 13 13 13 13 12 13 11 8 7 8 12 10 9 9 8 8 7 7 9 8
8 8 4 4 6 8 10 9 9 11 13 11 9 7 6 10 13 15 16 17 18 18 18 18 17 17 16 12 12 9 9 10 12 13 13 9 8 7 6 7 9 9 10 9 9 9 8 8 5
7 7 7 7 5 8 10 10 10 12 13 9 10 9 7 11 13 15 15 16 15 17 19 18 17 16 15 12 10 10 9 9 9 11 12 9 6 7 6 5 7 7 6 6 6 5 6 6 6
10 7 7 9 10 11 12 13 12 12 10 11 10 10 9 11 12 12 12 13 15 16 17 17 17 15 13 11 9 10 9 10 9 8 10 9 7 7 7 5 5 6 5 6 6 6 5 6 7
4 7 9 11 11 9 11 12 11 9 8 10 9 9 8 8 9 10 11 12 13 13 14 14 15 15 13 11 9 9 9 8 9 9 10 11 8 7 7 6 6 6 5 5 5 5 5 5 5
6 10 11 9 7 7 8 12 8 5 7 7 6 5 5 4 5 7 9 10 11 12 13 14 14 14 14 12 12 9 8 9 8 8 9 10 9 8 7 6 5 5 5 5 5 5 4 5 5
8 10 8 4 3 3 9 9 3 4 5 4 3 2 1 1 1 2 4 6 8 10 12 12 12 13 13 11 10 8 8 8 8 8 8 10 10 9 7 6 6 5 4 4 4 4 4 4 4
7 5 5 2 2 4 8 7 3 5 4 3 2 1 1 3 4 2 1 2 5 7 9 11 11 12 11 10 8 8 7 7 6 6 7 9 10 9 8 6 5 5 4 4 5 4 4 4 4
4 6 5 5 1 5 7 5 2 3 3 2 1 2 3 4 5 5 4 2 2 5 7 9 11 11 10 8 7 6 6 5 5 5 5 8 8 9 8 6 6 5 4 4 4 4 3 3 3
7 8 8 5 2 6 6 3 0 2 2 2 3 3 4 5 6 7 6 5 3 3 4 6 8 8 7 7 7 7 7 6 5 4 5 6 6 7 7 5 5 5 4 4 4 4 4 3 2
8 9 8 4 2 5 5 3 2 2 3 4 4 4 5 6 7 7 7 7 6 3 2 3 5 6 6 6 6 5 5 4 3 3 2 3 4 5 5 6 5 4 4 3 3 3 3 2 2
9 9 8 7 4 7 7 7 7 5 5 5 5 5 6 7 7 8 8 7 6 6 4 2 2 3 4 5 5 4 4 3 2 3 3 2 2 3 3 3 3 3 3 3 2 3 4 3 2
10 6 8 9 10 8 9 8 8 7 6 5 6 6 7 7 7 8 8 8 7 6 4 3 3 3 3 4 5 7 5 5 4 4 4 5 5 5 5 5 4 3 3 3 2 1 1 2 2
11 8 9 11 11 10 9 10 5 8 6 5 6 7 7 7 8 8 8 7 7 6 5 5 5 5 4 3 4 6 6 6 6 7 8 7 7 8 8 7 6 7 6 6 6 5 3 2 1
10 10 10 11 11 12 9 9 4 5 5 6 7 8 8 8 9 9 9 9 9 8 7 6 6 7 6 6 6 7 9 9 10 9 8 6 6 7 9 9 8 8 7 8 7 7 8 7 6
9 11 9 9 9 8 4 6 0 3 4 7 8 8 8 8 9 9 10 10 9 9 9 8 8 9 8 9 9 9 10 11 10 8 8 7 6 7 8 8 9 8 9 9 8 9 9 9 9
8 11 10 9 7 3 4 3 5 7 8 9 10 10 9 9 9 10 10 10 10 10 10 9 10 10 10 11 10 11 11 9 9 10 9 9 8 8 9 10 10 10 10 10 9 9 9 9 9
7 8 7 10 10 7 3 4 6 7 8 9 9 10 9 9 9 10 10 10 10 11 11 11 11 12 12 12 13 12 12 12 12 12 11 10 9 9 11 11 11 10 10 10 10 9 9 8 8
8 7 5 8 7 8 5 6 5 11 10 9 9 9 9 8 9 9 9 10 10 10 11 12 13 13 13 12 12 11 13 12 13 13 13 12 11 10 11 11 11 10 10 10 9 9 9 9 9
6 7 8 8 8 7 5 0 4 8 11 11 10 9 9 8 8 8 9 9 10 11 12 12 13 13 13 13 13 14 13 13 13 13 12 11 11 11 11 11 10 10 10 10 9 10 9 10 9
6 7 8 8 8 7 7 2 5 6 11 13 12 10 9 9 9 9 9 9 10 11 12 12 12 13 12 12 13 14 13 14 13 13 12 12 11 11 11 10 10 11 10 9 9 9 9 9 9
Wind_Direction
241 214 218 233 242 238 247 235 245 254 249 11 312 299 306 316 327 38 86 153 156 151 147 149 146 146 146 145 144 143 142 143 144 144 143 143 143 141 140 139 135 133 130 129 127 125 125 125 126
238 199 221 236 249 243 233 231 234 278 354 321 257 252 262 258 43 92 131 151 157 153 152 155 147 149 147 146 144 142 143 144 144 143 144 145 144 143 143 141 138 135 134 134 133 131 129 130 131
209 220 237 235 239 250 253 203 234 302 309 267 249 255 270 278 142 145 138 155 159 155 156 148 152 151 148 147 146 144 145 145 145 146 147 148 147 146 144 144 142 140 138 136 134 133 133 134 136
200 209 230 243 243 244 266 258 263 281 269 252 260 242 215 126 152 139 143 158 160 158 156 151 157 152 149 149 150 149 148 148 149 150 150 150 149 147 147 148 145 144 142 139 136 134 135 136 136
228 228 227 237 246 250 249 262 268 271 269 263 258 254 224 149 147 143 156 162 163 161 158 154 158 153 152 153 153 153 152 152 152 153 153 152 151 150 150 150 149 148 146 143 141 139 137 137 139
214 226 236 240 245 245 247 252 257 260 263 262 253 254 232 130 162 162 164 167 166 161 158 154 160 158 157 158 157 156 155 154 154 154 154 154 153 153 153 153 153 152 150 147 145 144 142 139 142
234 233 248 256 262 252 251 253 252 258 260 257 251 251 200 155 163 163 165 169 167 165 160 159 164 163 162 161 160 158 157 156 156 156 156 157 157 157 157 156 156 155 154 152 151 152 150 146 146
251 248 247 250 257 261 254 253 250 260 266 274 250 245 227 149 160 163 165 170 171 169 164 164 167 166 167 167 165 164 161 159 159 160 161 160 160 163 162 165 158 159 160 160 159 160 159 158 157
236 244 248 249 259 265 245 254 249 257 262 253 243 259 348 136 162 166 168 172 174 173 170 170 169 168 172 170 167 169 166 163 164 168 166 169 176 171 174 168 155 166 168 168 167 169 171 180 181
224 243 257 293 280 283 271 264 268 255 245 240 235 232 188 170 176 179 178 179 179 178 178 176 174 171 174 170 168 176 177 172 183 176 175 188 179 177 178 136 164 173 175 176 178 180 191 218 203
228 257 280 257 264 278 276 268 259 256 252 248 257 251 205 191 193 193 190 188 185 180 181 179 176 175 174 171 174 179 181 176 190 182 184 187 177 180 181 164 173 182 186 194 176 196 211 216 224
240 250 263 269 275 266 271 271 262 251 261 279 281 276 234 211 206 201 197 193 188 185 185 180 177 176 179 177 180 182 184 181 189 183 189 184 189 188 185 190 185 184 192 198 202 215 211 226 228
237 251 254 259 263 266 270 263 265 264 273 278 273 265 245 224 214 208 202 194 190 190 188 183 181 177 179 180 184 187 191 187 187 183 191 193 193 195 186 192 195 206 199 191 213 223 214 226 227
262 270 266 263 263 255 257 257 248 260 289 275 261 257 247 229 216 204 199 197 195 192 190 185 185 181 181 183 188 193 194 189 190 190 191 199 203 196 195 194 196 211 211 214 217 222 222 232 241
267 264 256 241 249 246 256 244 235 290 296 272 257 252 259 239 209 204 203 201 197 192 189 187 188 184 185 190 194 197 198 192 197 194 191 199 207 198 203 206 199 210 211 208 220 220 226 232 236
237 244 249 171 236 229 251 247 102 348 302 283 274 258 268 61 151 184 198 204 197 193 189 187 187 187 190 195 198 200 201 198 198 195 192 201 208 202 208 212 209 208 214 216 219 226 229 237 245
214 260 287 245 186 248 251 272 35 355 315 293 304 19 88 76 54 54 98 187 195 190 185 185 190 191 191 193 197 209 205 205 199 199 197 200 204 204 209 216 214 212 217 226 233 220 237 242 250
321 303 285 284 217 257 257 267 337 360 340 329 14 46 59 62 53 46 42 63 168 178 185 187 192 195 190 190 191 199 203 207 202 200 201 202 203 206 209 212 215 219 218 220 226 226 232 247 254
301 292 290 291 276 263 259 248 270 31 21 33 32 45 58 57 48 46 43 46 82 130 171 189 191 193 185 182 188 195 201 203 193 193 196 200 205 206 204 211 205 211 213 220 224 225 226 239 253
273 277 278 268 227 260 251 220 153 83 63 52 46 43 46 48 45 41 38 43 45 58 98 158 185 188 189 191 191 192 186 187 176 160 157 187 195 195 190 193 196 196 193 197 211 213 227 230 234
267 277 294 296 268 241 237 218 181 144 108 86 74 63 54 48 43 39 35 34 36 39 45 86 143 163 174 175 173 161 154 149 157 145 111 80 102 127 139 161 171 165 165 162 179 205 214 215 204
275 284 286 277 263 245 230 252 175 167 141 110 90 75 62 53 45 39 34 32 29 33 42 59 84 97 127 153 162 166 170 163 150 119 97 76 70 80 85 87 93 98 101 109 108 80 223 222 212
283 297 280 271 265 266 237 255 184 171 175 134 106 86 69 56 48 43 36 37 36 35 51 59 72 74 79 102 140 149 139 119 108 105 96 82 72 72 76 80 82 82 79 77 73 70 61 52 40
276 267 257 251 250 250 243 251 227 184 186 142 113 92 74 62 52 46 39 38 38 40 51 62 72 72 70 74 82 97 110 113 114 111 104 95 84 73 72 78 79 78 80 79 76 73 71 66 62
243 254 248 237 231 241 219 242 123 101 115 131 118 96 80 66 58 49 41 40 39 45 49 58 68 68 70 76 77 83 92 97 99 100 98 94 84 77 73 76 78 78 79 81 81 79 73 71 70
257 259 266 279 275 246 201 233 94 93 97 105 105 96 82 69 63 58 50 46 45 49 53 59 69 71 71 76 78 81 86 89 88 86 87 84 82 81 81 80 81 82 84 85 84 82 78 76 75
262 250 283 283 277 272 220 139 126 123 118 113 108 96 81 72 68 65 58 52 52 54 55 60 70 73 74 78 81 79 80 86 89 88 85 83 83 84 82 81 81 80 82 84 84 82 80 78 77
269 290 259 258 274 269 236 216 192 170 161 143 125 108 95 84 75 69 66 61 60 63 67 68 70 74 76 79 81 83 83 85 88 89 87 87 87 87 88 87 85 84 82 84 85 87 83 83 77
222 230 253 268 275 281 273 155 39 164 159 148 130 119 110 99 87 78 72 67 69 70 72 74 74 76 77 79 83 85 87 87 87 87 86 86 85 84 85 86 86 85 83 81 80 82 81 79 77
267 270 263 268 272 269 282 82 57 123 140 138 130 122 114 106 99 92 86 81 77 76 76 76 78 80 80 83 86 86 87 88 86 85 85 84 83 84 85 84 84 83 82 79 80 81 79 78 75